Thor Agena Rocket - Orbit

View from above orbital plane
View from above orbital plane
View from above satellite
View from above satellite

Ground track
Ground track

The orbit data is extracted from the following two-line orbital elements,

1 00733U 64002A   13142.83568187  .00000210  00000-0  95965-4 0  9500
2 00733 098.9806 243.5103 0034546 179.5690 327.1404 14.31636593569587
Epoch (UTC): 22 May 2013 20:03:22
Eccentricity: 0.0034546
inclination: 98.9806°
perigee height: 761 km
apogee height: 811 km
right ascension of ascending node: 243.5103°
argument of perigee: 179.5690°
revolutions per day: 14.31636593
mean anomaly at epoch: 327.1404°
orbit number at epoch: 56958

The dashed part of the orbit path shows where the satellite is in the earth's shadow,  

Developed and maintained by Chris Peat, Heavens-Above GmbH. Please read the updated FAQ before sending e-mail. Imprint. DLR